This is the latest recevied weather packets stored in our database for station/object EB5AGF-13. If no packets are shown the sender has not sent any weather packets the latest 10 day(s).
| Time | Temp. | Humidity | Pressure | Rain* | Wind** | Luminosity | Snow |
|---|---|---|---|---|---|---|---|
| 1778177253 | 17.78° C | 79% | 1008.1 hPa | 0 mm | 0.89 m/s, 19° | 51 W/m² | - |
| 1778176953 | 17.78° C | 78% | 1007.8 hPa | 0 mm | 1.79 m/s, 318° | 57 W/m² | - |
| 1778176652 | 18.33° C | 77% | 1008.1 hPa | 0 mm | 1.79 m/s, 9° | 65 W/m² | - |
| 1778176352 | 17.78° C | 76% | 1007.9 hPa | 0 mm | 2.24 m/s, 40° | 75 W/m² | - |
| 1778176053 | 17.78° C | 77% | 1007.9 hPa | 0 mm | 1.34 m/s, 29° | 50 W/m² | - |
| 1778175750 | 17.78° C | 78% | 1007.7 hPa | 0 mm | 1.79 m/s, 18° | 46 W/m² | - |
| 1778175446 | 18.89° C | 79% | 1007.8 hPa | 0 mm | 2.68 m/s, 309° | 73 W/m² | - |
| 1778175094 | 18.89° C | 79% | 1007.7 hPa | 0 mm | 1.34 m/s, 4° | 96 W/m² | - |
| 1778174734 | 18.89° C | 79% | 1007.6 hPa | 0 mm | 1.34 m/s, 4° | 96 W/m² | - |
| 1778174422 | 18.89° C | 79% | 1007.7 hPa | 0 mm | 3.58 m/s, 25° | 81 W/m² | - |
| 1778174117 | 18.89° C | 79% | 1007.5 hPa | 0 mm | 1.79 m/s, 17° | 69 W/m² | - |
| 1778173814 | 18.89° C | 78% | 1007.7 hPa | 0 mm | 1.34 m/s, 39° | 87 W/m² | - |
| 1778173509 | 18.89° C | 78% | 1007.8 hPa | 0 mm | 0.45 m/s, 354° | 95 W/m² | - |
| 1778173205 | 18.89° C | 78% | 1007.7 hPa | 0 mm | 1.79 m/s, 347° | 102 W/m² | - |
| 1778172873 | 18.89° C | 77% | 1007.9 hPa | 0 mm | 0.89 m/s, 25° | 93 W/m² | - |
| 1778172533 | 18.89° C | 77% | 1007.6 hPa | 0 mm | 1.34 m/s, 6° | 87 W/m² | - |
| 1778172213 | 18.89° C | 77% | 1007.9 hPa | 0 mm | 1.34 m/s, 14° | 96 W/m² | - |
| 1778171894 | 18.89° C | 77% | 1008 hPa | 0 mm | 0.89 m/s, 54° | 105 W/m² | - |
| 1778171557 | 18.89° C | 78% | 1007.8 hPa | 0 mm | 0.45 m/s, 325° | 121 W/m² | - |
| 1778171253 | 18.89° C | 78% | 1007.5 hPa | 0 mm | 0.89 m/s, 2° | 114 W/m² | - |
| 1778170950 | 18.89° C | 78% | 1007.8 hPa | 0 mm | 0.89 m/s, 348° | 113 W/m² | - |
| 1778170645 | 18.33° C | 78% | 1007.5 hPa | 0 mm | 0.89 m/s, 0° | 100 W/m² | - |
| 1778170341 | 18.33° C | 77% | 1007.5 hPa | 0 mm | 0.89 m/s, 3° | 86 W/m² | - |
| 1778170038 | 18.33° C | 77% | 1007.5 hPa | 0 mm | 0.89 m/s, 66° | 78 W/m² | - |
| 1778169733 | 18.33° C | 77% | 1007.6 hPa | 0 mm | 0.45 m/s, 48° | 76 W/m² | - |
* Rain latest hour (hover to see other rain measurements)
** Current wind speed in m/s (hover to see current wind gust speed)